Location: Wiesbaden
(50.0830°N, 8.2500°E)
Time: 21:43:03
(UTC+02:00)

ISS - Pass Details

Date: 14 September 2019
Orbit: 411 x 421 km, 51.6° (Epoch: 19 September)

Event Time Altitude Azimuth Distance (km) Brightness Sun altitude
Exits shadow 04:44:57 24° 137° (SE) 903 -2.0 -21.1°
Drops below altitude 10° 04:46:29 10° 128° (SE) 1,488 -0.8 -20.9°
Sets 04:48:36 0° 123° (ESE) 2,351 0.4 -20.6°
